OBJECT AF, 68445

Orbit data source: Space-Track

You're viewing an Uncataloged Satellite

Recently launched and/or uncataloged satellites may have evolving metadata. Metadata may include but not limited to: Owner, Maufacturer, Bus, Motor, and Mission.

OBJECT AF, 68445 is a satellite in SSO that was launched on Mon, 30 Mar 2026 UTC via an FALCON 9 launch vehicle from the Air Force Western Test Range (AFWTR). Unknown objects in Earth's orbit typically refer to objects detected orbiting the Earth but have not yet been identified or cataloged. These objects could be anything from previously untracked satellites, spent rocket stages, debris from satellite collisions, or even natural meteoroids temporarily captured by Earth's gravity.

Loading next visibility...
Identifier
68445, 2026-067AF
Orbit
SSO
Country
Flag of TBDTBD
Related business
None
Manufacturer
Unknown
Mission
Operational spacecraft
Bus & Motor
Unknown
Mass
Unknown
Launch date (UTC)
2026-03-30 (2 months ago)
Launch vehicle
FALCON 9
Launch site
Air Force Western Test Range (AFWTR)
Object type
Unknown
Shape & HBR
Unknown shape, 1.1 m
Radar Cross Section
Medium (>0.1 m² and <1 m²)

Expand to show TLE details & history
Last TLE update: 3 days ago

TLE from 3 days ago
0 OBJECT AF
1 68445U 26067AF  26155.13233528  .00004104  00000-0  20940-3 0  9991
2 68445  97.4518 113.6702 0006876 114.6882 245.5068 15.17268326  9954
Epoch: 2026-06-04T03:10Z
TLE epoch observation values (Epoch: 2026-06-04T03:10:33.768Z)
Latitude
-0.00001°
Longitude
173.44851°
Altitude
519.154 km
Speed
7.603 km/s
True Right ascension
07h 34m 40s
True Declination
0° 00' 00"
Sunlit
Object was in daylight at epoch
Visualization orbit readout
Latitude
Unknown
Longitude
Unknown
Altitude
Unknown
Speed
Unknown
Apparent Right ascension
Unknown
Apparent Declination
Unknown
Sunlit
N/A
Visualization observer readout
Local Sidereal Time
02:26:06
Azimuth
Unknown
Elevation
Unknown
Doppler factor
Unknown
Orbital elements
Apogee altitude
515.809 km
Perigee altitude
506.335 km
Semi-major axis
6,889.209 km
Eccentricity
0.00069
Inclination
97.4518°
RAAN
113.6702°
Arg. of periapsis
114.6882°
True anomaly
245.43512°
Mean anomaly
245.5068°
Eccentric anomaly
245.47096°
Mean motion
3.79568 °/min
Orbital period
94.84 mins
BSTAR
0.0002094
Loading maneuver chart data...
Computing Atmospheric mass density...
Loading historical data...
Loading historical data...
Loading historical data...
Loading historical data...
Loading historical data...
Loading historical data...
Loading historical data...

Documentation

Showing up to 5 results
|